Temperature
11 11 11 11 11 11 11 11 11 11 10 10 10 10 10 10 10 10 10 10 10 10 10 10 10 10 10 10 9 9 9 10 9 9 9 9 9 9 9 9 9 9 9
10 10 10 11 11 11 11 11 11 10 10 10 10 10 10 10 10 10 9 10 10 10 9 10 10 10 9 9 9 9 9 9 9 9 9 9 9 9 9 9 8 8 8
10 10 10 10 11 11 10 10 10 10 10 10 10 10 10 9 9 9 9 9 9 9 9 9 9 9 9 9 9 9 9 9 9 9 9 9 9 8 8 8 8 8 8
10 10 10 10 10 10 10 10 10 10 10 10 10 9 9 9 9 9 9 9 9 9 9 9 9 9 9 9 9 9 9 8 8 8 8 8 8 8 8 8 8 8 8
10 10 10 10 10 10 10 10 9 9 9 9 9 9 9 9 9 9 9 9 9 9 9 9 9 9 9 8 8 8 8 8 8 8 8 8 8 8 8 7 7 7 7
9 9 9 9 9 9 9 9 9 9 9 9 9 9 9 9 9 9 8 8 8 8 8 8 8 8 8 8 8 8 8 8 8 8 8 8 7 7 7 7 7 7 7
9 9 9 9 9 9 9 9 9 8 8 8 8 8 8 8 8 8 8 8 8 8 8 8 8 8 8 8 8 8 7 8 7 7 7 7 7 7 7 7 7 7 7
9 8 8 8 8 8 8 8 8 8 8 8 8 7 7 7 8 8 8 8 8 8 8 8 7 8 7 7 7 7 7 7 7 7 7 7 7 7 7 6 6 6 6
8 8 8 8 8 7 7 8 8 8 8 7 7 7 7 7 7 7 7 7 7 7 7 7 7 7 7 7 7 7 7 7 7 7 6 6 6 6 6 6 6 6 6
7 7 7 7 7 7 7 7 7 7 7 7 7 7 7 7 7 6 6 6 6 7 7 7 7 7 7 7 7 7 6 6 6 6 6 6 6 6 6 6 6 5 5
6 6 6 6 6 6 7 7 6 7 7 7 7 7 7 7 7 6 6 6 6 6 6 7 7 7 7 6 6 6 6 6 6 6 6 6 5 5 5 5 5 5 5
6 6 6 6 6 6 6 6 6 6 6 6 6 6 6 6 6 6 6 5 5 6 6 6 6 6 6 6 6 6 6 6 5 5 5 5 5 5 5 5 5 5 5
5 5 5 5 5 5 6 6 5 5 6 6 6 6 6 6 6 6 5 5 5 5 5 6 6 6 6 6 6 5 5 5 5 5 5 5 5 5 4 4 4 4 4
5 4 4 4 5 5 5 5 5 5 5 5 5 5 6 6 5 5 5 5 4 4 4 5 5 5 5 5 5 5 5 5 4 4 4 4 4 4 4 4 4 4 4
4 4 4 4 4 4 5 5 4 5 5 5 5 5 5 5 5 5 5 5 4 4 3 4 4 5 5 5 4 4 4 4 4 4 4 4 4 4 4 3 3 3 3
4 4 4 4 4 4 4 4 4 4 4 4 5 5 5 5 5 5 5 4 4 4 3 3 4 4 4 4 4 4 4 3 3 3 3 3 3 3 3 3 3 3 3
3 3 3 3 3 4 4 4 3 4 4 4 4 4 4 4 4 4 4 4 4 4 4 3 3 3 3 3 3 3 3 3 3 3 3 3 3 3 2 2 2 2 2
3 3 3 3 3 3 3 3 3 3 3 3 3 4 4 4 4 4 3 3 3 3 3 3 3 3 3 3 3 3 3 2 2 2 2 2 2 2 2 2 2 2 2
2 2 2 2 2 2 2 3 3 2 3 3 3 3 3 3 3 3 3 3 3 3 3 3 3 2 2 2 2 2 2 2 2 2 2 2 2 1 1 1 1 1 1
2 2 2 2 2 2 2 2 2 2 2 2 2 2 2 2 2 2 2 2 2 2 2 2 2 2 2 1 1 1 1 1 1 1 1 1 1 1 1 1 1 1 1
1 1 1 1 2 2 2 1 1 1 1 1 1 2 2 2 2 2 2 2 2 2 2 1 1 1 1 1 1 0 0 1 1 1 1 1 0 0 0 0 0 0 0
1 1 1 1 1 1 1 1 1 1 1 1 1 1 1 1 1 1 1 1 1 1 1 1 1 0 0 0 -0 -0 -0 -0 -0 -0 -0 -0 -0 -0 -0 -0 -0 -0 -0
0 0 0 0 0 0 0 0 0 0 0 0 1 1 1 1 0 0 0 0 0 0 0 0 0 0 -0 -0 -0 -0 -0 -1 -1 -1 -1 -1 -1 -1 -1 -1 -1 -1 -1
-0 -0 -0 -0 -0 -0 -0 -0 -0 -0 -0 -0 0 0 0 0 -0 -0 -0 -0 -0 -0 -0 -0 -0 -1 -1 -1 -1 -1 -1 -1 -1 -1 -1 -2 -1 -1 -1 -1 -1 -1 -1
-1 -1 -1 -1 -1 -1 -1 -1 -1 -0 -0 -1 -1 -1 -0 -0 -1 -1 -1 -1 -1 -1 -1 -1 -1 -1 -1 -1 -1 -1 -1 -1 -2 -2 -2 -2 -2 -1 -1 -1 -1 -1 -1
-1 -1 -2 -2 -2 -1 -1 -1 -1 -1 -1 -1 -1 -1 -1 -1 -1 -1 -1 -1 -1 -1 -1 -1 -1 -1 -1 -1 -1 -1 -1 -2 -2 -3 -2 -3 -3 -2 -2 -2 -2 -2 -1
Wind_Speed
2 1 2 2 3 3 3 3 3 3 3 4 4 3 2 3 2 3 5 6 6 6 5 5 5 5 5 5 5 5 5 5 5 5 6 6 6 6 6 6 6 7 7
2 2 2 2 2 2 3 3 3 3 3 2 3 3 3 3 2 3 5 5 6 7 7 6 5 5 5 5 5 5 6 6 6 6 7 7 7 7 7 7 7 7 8
2 2 2 2 2 2 3 2 2 2 2 2 3 3 3 3 3 3 5 5 5 6 7 7 6 6 6 6 6 6 6 6 7 7 7 6 7 7 7 8 8 8 8
3 2 2 2 2 2 2 2 2 2 1 2 2 2 2 2 3 3 4 5 5 5 5 7 7 7 7 6 6 6 6 6 7 7 8 7 7 7 7 8 9 9 9
2 2 2 2 2 1 2 2 2 2 2 1 2 2 2 2 2 3 3 4 5 5 4 5 6 7 6 6 6 6 7 7 7 8 8 7 8 8 8 8 9 9 10
1 1 2 2 1 1 2 2 3 2 2 2 1 2 2 3 3 3 3 3 4 5 5 4 4 5 5 5 5 6 7 7 7 8 8 8 8 9 9 9 10 10 10
1 1 1 2 1 2 3 3 3 3 2 1 1 1 3 3 3 3 2 2 3 4 4 4 4 4 3 5 5 6 7 8 8 8 8 8 8 9 9 10 10 11 11
2 2 2 2 2 2 2 3 2 2 2 2 1 1 1 2 3 3 2 3 3 2 3 4 4 4 3 3 4 6 7 8 8 8 8 8 9 9 10 11 11 11 12
2 1 2 1 1 2 2 3 3 3 3 3 3 3 2 3 1 2 3 3 2 2 2 3 4 4 4 3 3 5 6 8 8 8 8 8 9 9 10 11 12 12 13
2 1 1 1 0 1 2 3 3 3 4 4 3 3 3 2 2 1 2 2 2 3 3 3 3 4 4 3 3 3 5 7 8 8 8 9 9 9 10 11 12 13 13
2 1 1 0 1 1 1 2 3 3 3 4 4 2 3 2 2 2 3 3 3 3 3 3 3 3 3 3 2 2 4 6 7 8 8 9 10 10 10 11 12 13 13
2 1 1 1 1 1 2 2 3 3 3 3 3 3 3 3 3 3 3 3 3 3 3 3 3 3 2 2 2 3 4 5 6 7 8 9 10 10 11 12 12 13 13
2 2 1 2 2 2 2 2 3 3 3 3 4 3 3 3 3 2 3 3 2 2 2 2 2 2 1 1 1 4 5 5 7 7 7 7 9 10 11 12 13 13 14
3 2 1 2 2 2 2 2 2 3 3 3 3 3 2 2 3 2 3 2 2 1 1 2 1 2 1 0 2 4 4 5 6 6 6 7 8 9 10 11 12 13 13
2 2 1 2 2 1 2 2 2 2 2 3 3 3 2 2 2 2 2 3 3 3 3 2 1 1 0 0 2 3 3 5 6 6 7 7 8 8 9 10 11 12 12
2 2 1 1 2 2 1 1 1 2 2 2 2 2 2 2 1 1 2 2 2 3 3 1 1 0 0 2 3 3 4 5 5 6 7 7 7 8 9 10 10 11 12
1 1 2 1 2 2 1 1 1 1 2 2 1 2 2 2 2 1 1 2 2 2 3 2 0 1 1 1 2 2 3 3 4 6 6 7 8 8 9 9 10 11 12
1 1 1 1 2 2 1 1 1 1 1 2 1 1 1 1 2 1 1 1 1 1 2 3 1 1 1 1 1 2 3 4 4 5 6 6 7 7 8 9 10 11 12
1 1 1 1 2 2 1 1 1 1 1 1 1 0 0 1 1 1 0 0 1 0 1 2 1 1 1 1 2 2 3 3 5 4 5 6 7 8 9 10 10 11 12
1 1 1 1 1 1 1 1 1 1 1 1 1 1 0 1 2 1 1 1 1 1 1 1 0 1 1 1 1 2 3 3 3 4 5 6 7 8 9 10 11 12 12
1 0 1 1 1 1 1 2 1 1 1 2 2 2 2 1 1 1 1 1 2 2 1 1 0 1 1 1 1 1 2 3 3 2 3 5 5 5 6 9 10 11 11
0 1 1 1 1 1 1 2 2 1 1 1 1 2 2 2 2 2 3 2 2 2 2 1 0 0 1 1 1 1 2 3 3 3 4 5 4 4 5 5 9 11 11
1 1 1 1 1 1 1 2 2 2 2 1 1 2 1 2 3 2 4 4 4 2 1 0 1 1 1 1 1 2 2 2 3 3 4 5 4 4 5 7 11 12 12
1 1 1 1 1 1 1 2 3 3 2 2 2 2 2 2 2 2 3 4 3 3 2 1 1 0 0 0 0 0 1 2 2 2 3 3 4 4 5 7 10 12 13
1 1 2 2 1 1 1 2 3 2 2 2 2 2 2 2 3 4 3 3 3 3 3 3 2 3 3 3 2 1 1 2 3 3 2 2 3 4 4 4 7 11 13
1 1 2 2 1 0 1 2 2 1 2 2 2 2 2 3 3 4 3 3 2 1 2 2 3 3 3 3 4 2 0 1 2 3 3 2 3 4 4 3 3 7 10
Wind_Direction
187 183 188 195 206 204 191 201 218 212 218 209 215 218 223 222 174 148 161 188 201 216 230 240 248 238 243 250 257 263 271 277 279 283 282 290 290 287 285 283 284 289 292
205 186 195 187 213 202 205 212 217 216 226 212 220 221 221 226 191 162 166 186 204 218 231 238 247 244 249 254 261 266 271 278 281 282 281 281 288 284 281 281 281 286 290
217 192 193 197 208 208 214 218 226 214 222 223 221 227 218 213 206 190 179 179 187 211 226 235 248 250 253 259 267 272 278 284 287 288 286 286 290 288 282 281 281 282 286
222 199 188 208 217 202 200 206 209 215 220 226 230 240 238 223 224 208 196 183 177 185 208 227 242 253 250 257 264 270 278 287 290 294 293 292 295 293 296 295 286 282 283
229 211 196 215 214 200 202 217 213 199 208 231 233 242 248 243 235 225 207 190 175 171 178 207 232 248 248 256 265 271 278 284 288 293 294 299 302 297 294 298 299 290 286
256 227 207 210 208 198 213 207 215 216 206 209 242 266 270 254 239 227 214 194 176 182 185 196 210 237 249 256 267 277 282 287 291 293 292 297 302 303 300 301 299 298 290
273 242 227 204 195 212 221 216 214 213 217 194 205 290 289 261 242 235 202 187 197 194 190 194 201 209 233 251 263 278 283 291 293 292 293 298 301 304 306 306 305 302 300
289 264 205 206 208 226 236 231 214 220 228 203 191 212 260 274 264 243 216 212 212 197 206 209 202 202 220 224 249 270 281 290 292 295 300 302 301 302 307 308 306 305 302
299 296 255 216 203 212 232 235 227 226 219 230 209 192 198 221 273 251 231 218 209 210 219 212 203 204 222 223 230 253 276 289 288 295 301 306 304 304 305 308 308 307 306
306 334 299 253 220 227 243 247 250 247 221 227 239 239 230 195 187 242 259 237 230 225 222 220 207 206 220 227 237 258 276 285 286 293 300 305 306 306 306 310 310 309 310
294 306 313 233 235 246 251 256 262 248 232 231 235 236 251 250 204 204 242 248 262 248 232 219 202 202 211 226 232 272 290 287 288 291 298 304 306 307 309 311 313 312 312
302 300 300 248 231 239 249 257 257 256 249 245 243 226 220 217 219 209 228 236 246 256 246 224 210 185 192 224 242 294 293 291 293 294 302 306 308 311 314 315 314 315 313
280 269 284 248 242 238 244 251 253 252 246 242 241 234 229 223 215 209 214 236 251 265 248 232 214 159 182 190 250 289 288 291 296 300 307 311 314 315 313 313 315 316 315
244 253 270 253 241 243 254 247 248 251 242 241 246 232 235 228 207 199 205 216 247 253 241 242 224 160 148 225 266 279 283 285 298 305 307 312 316 316 315 316 319 320 319
248 244 243 269 269 262 263 252 249 258 248 242 241 227 216 217 217 215 195 189 198 234 247 235 202 195 196 272 279 296 297 297 303 308 310 312 314 315 321 322 323 324 326
234 226 243 248 267 270 278 277 271 268 271 257 237 214 195 190 197 212 197 211 211 213 242 256 224 299 23 322 297 316 307 308 304 304 307 309 313 317 321 321 320 323 325
229 231 248 254 260 261 260 257 267 268 270 277 256 204 203 185 176 192 206 214 213 202 237 274 47 32 18 304 331 320 306 300 297 297 303 309 312 315 317 321 324 326 327
260 252 266 269 277 274 264 252 275 270 265 270 259 207 190 160 150 173 180 206 211 204 215 246 270 3 336 337 355 334 332 318 311 304 309 315 319 322 323 325 328 329 329
281 292 290 281 281 279 263 264 306 303 291 291 287 207 134 119 131 135 119 162 163 118 192 216 254 322 343 12 10 344 341 341 332 337 334 328 328 328 328 329 328 327 327
283 301 322 321 310 309 315 77 61 29 11 1 358 23 108 141 144 138 99 104 107 106 113 140 268 310 344 5 27 351 339 334 328 341 340 335 333 333 331 330 328 327 328
294 343 25 343 342 352 47 73 79 79 66 39 27 34 44 75 122 144 131 118 119 127 128 154 252 342 353 5 349 346 326 323 326 348 342 333 336 332 331 329 329 330 331
25 30 35 0 9 0 15 44 53 70 73 68 57 49 44 44 68 74 76 70 96 125 148 164 195 206 297 322 337 334 322 327 320 346 344 321 330 320 323 331 334 336 336
17 40 62 60 39 17 5 30 41 61 64 54 74 64 32 43 50 73 73 62 49 46 72 150 177 208 238 292 313 334 338 321 300 315 331 312 318 310 322 333 335 342 343
22 95 84 71 61 4 11 34 52 62 64 43 62 76 71 63 66 80 86 75 61 47 50 62 139 140 50 36 305 292 316 325 313 328 332 307 312 307 318 328 338 349 350
31 61 78 74 62 6 27 48 44 66 64 46 45 63 75 82 74 68 76 76 55 35 40 52 54 46 35 20 16 27 345 348 327 327 338 317 314 316 311 311 337 347 348
46 57 66 66 54 1 23 49 49 76 66 56 41 44 59 68 70 66 76 89 69 16 24 37 43 36 38 33 19 32 350 338 319 318 332 338 320 333 327 312 330 347 346
Height
1499 1500 1501 1501 1502 1503 1504 1505 1506 1507 1507 1508 1508 1509 1509 1510 1510 1509 1509 1509 1510 1510 1510 1510 1510 1510 1510 1510 1510 1510 1509 1509 1509 1508 1508 1507 1507 1506 1506 1506 1505 1505 1504
1496 1497 1497 1498 1499 1500 1501 1502 1503 1504 1504 1505 1505 1506 1506 1507 1506 1506 1506 1506 1506 1507 1507 1507 1507 1507 1507 1507 1507 1507 1507 1506 1506 1505 1505 1504 1504 1503 1503 1502 1502 1501 1501
1493 1494 1494 1495 1496 1497 1498 1499 1500 1500 1501 1501 1502 1502 1503 1503 1503 1502 1503 1503 1503 1503 1504 1504 1504 1504 1504 1504 1504 1504 1503 1503 1503 1502 1501 1501 1500 1500 1499 1499 1498 1498 1497
1489 1490 1491 1492 1493 1494 1495 1495 1496 1497 1497 1497 1498 1498 1499 1499 1500 1499 1499 1499 1499 1499 1500 1500 1501 1500 1500 1500 1500 1500 1500 1499 1499 1499 1498 1498 1497 1496 1496 1495 1494 1494 1493
1486 1487 1487 1488 1489 1490 1491 1491 1492 1493 1493 1494 1494 1494 1494 1494 1495 1496 1495 1495 1495 1495 1496 1496 1497 1497 1496 1497 1497 1497 1496 1496 1495 1495 1494 1494 1493 1493 1492 1491 1490 1490 1489
1482 1483 1484 1484 1485 1486 1486 1487 1488 1488 1489 1489 1490 1490 1490 1490 1491 1491 1491 1491 1491 1491 1492 1492 1493 1493 1493 1493 1493 1493 1492 1492 1492 1491 1491 1490 1489 1489 1488 1487 1486 1485 1485
1478 1479 1480 1481 1481 1481 1482 1483 1483 1484 1484 1485 1486 1485 1485 1486 1486 1487 1487 1487 1487 1487 1488 1489 1489 1489 1489 1489 1489 1489 1489 1488 1488 1487 1486 1486 1485 1485 1484 1483 1482 1481 1480
1474 1475 1476 1476 1477 1478 1478 1478 1479 1479 1480 1481 1481 1481 1481 1482 1482 1482 1483 1483 1483 1483 1484 1484 1485 1485 1485 1485 1485 1485 1485 1484 1484 1483 1483 1482 1481 1480 1479 1479 1478 1477 1475
1469 1470 1471 1472 1473 1473 1474 1474 1475 1475 1475 1476 1477 1478 1477 1476 1477 1478 1478 1479 1479 1479 1479 1480 1480 1481 1481 1481 1481 1481 1480 1480 1480 1479 1478 1478 1477 1476 1475 1474 1473 1472 1471
1465 1466 1466 1467 1468 1469 1469 1470 1470 1470 1471 1471 1472 1473 1473 1472 1473 1472 1473 1474 1475 1475 1475 1476 1476 1476 1477 1477 1477 1477 1476 1476 1476 1475 1474 1474 1473 1472 1471 1470 1469 1467 1466
1462 1461 1462 1463 1464 1464 1465 1465 1465 1466 1466 1467 1467 1467 1468 1468 1468 1468 1468 1469 1470 1470 1471 1471 1472 1472 1472 1472 1472 1472 1472 1472 1471 1471 1470 1470 1469 1467 1466 1465 1464 1462 1461
1457 1457 1457 1458 1459 1460 1460 1461 1461 1461 1461 1462 1462 1462 1463 1463 1463 1464 1464 1464 1464 1465 1466 1467 1467 1467 1468 1469 1468 1468 1468 1468 1467 1466 1466 1465 1464 1463 1462 1461 1459 1458 1456
1453 1452 1453 1454 1455 1455 1456 1456 1457 1457 1457 1457 1457 1458 1458 1458 1459 1460 1460 1460 1460 1461 1462 1463 1463 1463 1464 1464 1464 1464 1464 1463 1463 1462 1461 1461 1460 1458 1458 1456 1455 1453 1452
1450 1449 1449 1450 1451 1451 1451 1452 1452 1453 1453 1452 1453 1453 1453 1454 1455 1455 1456 1457 1456 1456 1457 1458 1459 1459 1460 1460 1460 1460 1459 1459 1459 1457 1457 1456 1455 1454 1453 1452 1451 1449 1447
1446 1446 1446 1447 1447 1447 1447 1448 1448 1448 1448 1448 1448 1449 1449 1450 1451 1451 1453 1453 1454 1453 1453 1453 1454 1455 1456 1456 1456 1455 1455 1455 1454 1453 1453 1452 1451 1450 1449 1448 1447 1445 1443
1442 1443 1443 1443 1443 1443 1444 1443 1443 1444 1444 1444 1445 1445 1445 1446 1448 1447 1448 1449 1450 1451 1450 1450 1450 1451 1452 1452 1452 1451 1451 1451 1450 1449 1449 1448 1447 1446 1445 1444 1442 1441 1439
1439 1439 1440 1440 1440 1440 1440 1439 1439 1440 1441 1441 1441 1441 1442 1443 1443 1444 1445 1446 1447 1448 1448 1447 1448 1448 1448 1449 1448 1448 1448 1447 1446 1446 1445 1444 1443 1443 1441 1440 1438 1437 1435
1436 1436 1437 1437 1437 1437 1437 1437 1436 1437 1437 1437 1438 1438 1439 1439 1440 1441 1441 1442 1444 1445 1445 1444 1444 1445 1445 1446 1445 1445 1445 1444 1443 1442 1442 1441 1440 1439 1438 1436 1435 1433 1431
1433 1433 1433 1433 1434 1434 1434 1434 1434 1434 1434 1435 1435 1435 1436 1436 1437 1438 1438 1439 1440 1441 1442 1441 1441 1442 1442 1443 1442 1442 1442 1441 1440 1440 1439 1438 1437 1436 1434 1433 1431 1429 1427
1430 1430 1430 1431 1431 1431 1431 1431 1432 1432 1432 1433 1433 1433 1434 1434 1435 1435 1436 1436 1437 1438 1438 1438 1438 1438 1439 1440 1440 1439 1438 1438 1437 1437 1436 1434 1433 1432 1431 1429 1427 1425 1423
1427 1428 1428 1428 1429 1429 1429 1429 1430 1430 1430 1430 1431 1432 1432 1432 1433 1434 1434 1434 1435 1435 1436 1436 1436 1436 1436 1436 1436 1436 1435 1435 1434 1433 1432 1431 1430 1429 1427 1425 1423 1421 1419
1424 1425 1425 1426 1427 1427 1427 1428 1429 1429 1429 1429 1429 1430 1430 1431 1431 1432 1432 1433 1433 1433 1434 1434 1434 1433 1434 1434 1434 1434 1433 1432 1430 1431 1429 1427 1427 1425 1424 1422 1420 1418 1416
1422 1423 1423 1424 1424 1426 1426 1427 1428 1428 1428 1428 1428 1428 1429 1429 1430 1430 1430 1430 1431 1432 1433 1433 1432 1432 1432 1432 1431 1431 1431 1430 1429 1428 1427 1424 1424 1423 1421 1419 1417 1415 1412
1421 1421 1422 1422 1423 1425 1426 1426 1427 1427 1427 1427 1427 1427 1427 1428 1429 1428 1428 1429 1429 1430 1430 1430 1431 1430 1430 1430 1430 1429 1429 1428 1427 1426 1425 1423 1421 1419 1418 1416 1414 1412 1410
1420 1420 1421 1421 1423 1424 1425 1425 1425 1426 1426 1426 1426 1427 1427 1427 1427 1427 1427 1427 1428 1429 1429 1429 1429 1429 1429 1429 1428 1428 1427 1426 1424 1424 1423 1421 1418 1416 1415 1413 1412 1410 1407
1419 1419 1420 1421 1422 1423 1424 1425 1425 1424 1424 1424 1425 1425 1426 1426 1426 1426 1426 1426 1426 1427 1427 1428 1427 1427 1427 1427 1427 1427 1426 1424 1422 1421 1421 1419 1417 1415 1412 1410 1409 1407 1405